• Join FlightAware (Why Join?)
  • Login
  • US Flag 
10:49PM EDT


 

Airport Tracker/Info


-or-


 

Live Flight TrackerFlight Track Log ✈ VNR150 ✈ 05-Jun-2013 ✈ KSAF - KDAL

Flight Track Log - Related Links

Times and Time Zones

All times are in EDT time to prevent confusion due to time zone crossing. See the VNR150 flight status page for this flight to view local times or setup timezone preferences in your user account.

Time Position Orientation Groundspeed Altitude Reporting Facility
EDT Latitude Longitude Course Direction KTS MPH feet Rate Location/Type
06:39PM 35.6317 -106.0147 101° East 187 215 8,700  Level Albuquerque Center
06:40PM 35.6067 -105.9522 116° Southeast 199 229 10,700 2,040 Climbing Albuquerque Center
06:41PM 35.5494 -105.9381 169° South 219 252 12,900 2,160 Climbing Albuquerque Center
06:42PM 35.4939 -105.9394 181° South 205 236 15,200 2,160 Climbing Albuquerque Center
06:43PM 35.4370 -105.3872 107° East  Level Estimated
06:43PM 35.4325 -105.9392 180° South 213 245 17,400  Level Albuquerque Center
06:44PM 35.3642 -105.9414 182° South 225 259 19,600 2,340 Climbing Albuquerque Center
06:45PM 35.2817 -105.9456 182° South 246 283 22,300 2,280 Climbing Albuquerque Center
06:46PM 35.2128 -105.9533 185° South 246 283 24,400 1,920 Climbing Albuquerque Center
06:47PM 35.1439 -105.9675 190° South 249 287 26,300 1,620 Climbing Albuquerque Center
06:48PM 35.0742 -105.9608 176° South 255 293 27,800 1,380 Climbing Albuquerque Center
06:49PM 35.0025 -105.9244 157° South 275 316 29,200 1,320 Climbing Albuquerque Center
06:50PM 34.9372 -105.8603 141° Southeast 287 330 30,600 840 Climbing Albuquerque Center
06:52PM 34.8808 -105.7839 132° Southeast 306 352 31,000 180 Climbing Albuquerque Center
06:53PM 34.8308 -105.6881 122° Southeast 328 377 31,000  Level Albuquerque Center
06:54PM 34.7789 -105.5833 121° Southeast 351 404 31,000  Level Albuquerque Center
06:55PM 34.7458 -105.4381 105° East 385 443 31,000  Level Albuquerque Center
06:56PM 34.7356 -105.3061 95° East 390 449 31,000  Level Albuquerque Center
06:57PM 34.7231 -105.1683 96° East 403 464 31,000  Level Albuquerque Center
06:58PM 34.7122 -105.0283 95° East 411 473 31,000  Level Albuquerque Center
06:59PM 34.6997 -104.8861 96° East 418 481 31,000  Level Albuquerque Center
07:00PM 34.6872 -104.7439 96° East 422 486 31,000  Level Albuquerque Center
07:01PM 34.6756 -104.6033 96° East 419 482 31,000  Level Albuquerque Center
07:02PM 34.6636 -104.4667 96° East 410 472 31,000  Level Albuquerque Center
07:03PM 34.6508 -104.3303 96° East 407 468 31,000  Level Albuquerque Center
07:04PM 34.6369 -104.1725 96° East 403 464 31,000  Level Albuquerque Center
07:05PM 34.6239 -104.0375 97° East 402 463 31,000  Level Albuquerque Center
07:06PM 34.6111 -103.9019 96° East 402 463 31,000  Level Albuquerque Center
07:07PM 34.5972 -103.7658 97° East 404 465 31,000  Level Albuquerque Center
07:08PM 34.5844 -103.6314 97° East 401 461 31,000  Level Albuquerque Center
07:09PM 34.5717 -103.4947 96° East 404 465 31,000  Level Albuquerque Center
07:10PM 34.5575 -103.3561 97° East 410 472 31,000  Level Albuquerque Center
07:11PM 34.5444 -103.2158 96° East 415 478 31,000  Level Albuquerque Center
07:12PM 34.5306 -103.0769 97° East 413 475 31,000  Level Albuquerque Center
07:13PM 34.5128 -102.9122 97° East 418 481 31,000  Level Albuquerque Center
07:14PM 34.4986 -102.7708 97° East 420 483 31,000  Level Albuquerque Center
07:15PM 34.4833 -102.6342 98° East 423 487 31,000  Level Albuquerque Center
07:16PM 34.4694 -102.4939 97° East 422 486 31,000  Level Albuquerque Center
07:17PM 34.4533 -102.3522 98° East 424 488 31,000  Level Albuquerque Center
07:18PM 34.4386 -102.2114 97° East 424 488 31,000  Level Albuquerque Center
07:19PM 34.4219 -102.0703 98° East 425 489 31,000  Level Albuquerque Center
07:20PM 34.4033 -101.9011 98° East 426 490 31,000  Level Albuquerque Center
07:21PM 34.3875 -101.7597 98° East 426 490 31,000  Level Albuquerque Center
07:22PM 34.3747 -101.6556 98° East 429 494 31,000  Level Fort Worth Center
07:22PM 34.3722 -101.6189 95° East 426 490 31,000  Level Albuquerque Center
07:23PM 34.3561 -101.4775 98° East 426 490 31,000  Level Albuquerque Center
07:24PM 34.3400 -101.3372 98° East 426 490 31,000  Level Albuquerque Center
07:25PM 34.3236 -101.1975 98° East 423 487 31,000  Level Albuquerque Center
07:26PM 34.3111 -101.0944 98° East 429 494 31,000  Level Fort Worth Center
07:27PM 34.2922 -100.9503 99° East 429 494 31,000  Level Fort Worth Center
07:28PM 34.2753 -100.8114 98° East 424 488 31,000  Level Fort Worth Center
07:29PM 34.2456 -100.6719 104° East 424 488 31,000  Level Fort Worth Center
07:30PM 34.2158 -100.5353 105° East 419 482 31,000  Level Fort Worth Center
07:31PM 34.1814 -100.4011 107° East 419 482 31,000  Level Fort Worth Center
07:32PM 34.1511 -100.2644 105° East 419 482 31,000  Level Fort Worth Center
07:33PM 34.1167 -100.1303 107° East 424 488 31,000 -360 Level Fort Worth Center
07:34PM 34.0861 -99.9939 105° East 424 488 30,400 -780 Descending Fort Worth Center
07:35PM 34.0514 -99.8475 106° East 429 494 29,500 -960 Descending Fort Worth Center
07:36PM 34.0186 -99.7139 106° East 429 494 28,500 -1,020 Descending Fort Worth Center
07:37PM 33.9836 -99.5753 107° East 429 494 27,500 -1,020 Descending Fort Worth Center
07:38PM 33.9525 -99.4367 105° East 423 487 26,500 -1,020 Descending Fort Worth Center
07:39PM 33.9189 -99.3033 107° East 423 487 25,500 -1,080 Descending Fort Worth Center
07:40PM 33.8897 -99.1750 105° East 410 472 24,400 -1,080 Descending Fort Worth Center
07:41PM 33.8539 -99.0492 109° East 398 458 23,400 -1,020 Descending Fort Worth Center
07:42PM 33.8219 -98.9211 107° East 393 452 22,400 -1,020 Descending Fort Worth Center
07:43PM 33.7900 -98.7956 107° East 398 458 21,400 -960 Descending Fort Worth Center
07:44PM 33.7642 -98.6828 105° East 392 451 20,500 -960 Descending Fort Worth Center
07:45PM 33.7339 -98.5650 107° East 382 440 19,500 -1,080 Descending Fort Worth Center
07:46PM 33.7017 -98.4347 107° East 376 433 18,400 -1,140 Descending Fort Worth Center
07:47PM 33.6714 -98.3194 107° East 365 420 17,300 -1,080 Descending Fort Worth Center
07:48PM 33.6428 -98.2069 107° East 360 414 16,300 -960 Descending Fort Worth Center
07:49PM 33.6183 -98.1069 106° East 360 414 15,400 -960 Descending Fort Worth Center
07:50PM 33.5897 -97.9944 107° East 355 409 14,400 -1,080 Descending Fort Worth Center
07:51PM 33.5569 -97.8747 108° East 350 403 13,300 -1,080 Descending Fort Worth Center
07:52PM 33.5300 -97.7772 108° East 341 392 12,300 -1,500 Descending Fort Worth Center
07:53PM 33.5011 -97.6625 107° East 336 387 10,400 -1,800 Descending Fort Worth Center
07:54PM 33.4742 -97.5628 108° East 318 366 8,700 -1,620 Descending Fort Worth Center
07:55PM 33.4511 -97.4806 109° East 301 346 7,200 -1,260 Descending Fort Worth Center
07:56PM 33.3928 -97.4086 134° Southeast 274 315 6,200 -900 Descending Fort Worth Center
07:57PM 33.3844 -97.3264 97° East 254 292 5,400 -600 Descending Fort Worth Center
07:58PM 33.3864 -97.2269 89° East 264 304 5,000 -240 Descending Fort Worth Center
07:59PM 33.3883 -97.1347 89° East 273 314 5,000 -480 Level Fort Worth Center
08:00PM 33.3881 -97.0503 90° East 278 320 4,100 -540 Descending Fort Worth Center
08:01PM 33.3753 -96.9558 99° East 262 302 4,000 -60 Descending Fort Worth Center
08:02PM 33.3500 -96.8814 112° Southeast 262 302 4,000  Level Fort Worth Center
08:03PM 33.2831 -96.8444 155° Southeast 240 276 4,000  Level Fort Worth Center
08:04PM 33.2203 -96.8350 173° South 252 290 4,000 -180 Level Fort Worth Center
08:05PM 33.1408 -96.8281 176° South 260 299 3,700 -540 Descending Fort Worth Center
08:06PM 33.0681 -96.8333 183° South 260 299 3,000 -660 Descending Fort Worth Center
08:06PM 33.0500 -96.8333 180° South 257 296 2,900 -180 Descending Dallas / Fort Worth TRACON
08:07PM 32.9833 -96.8833 212° Southwest 241 277 2,800 -480 Descending Dallas / Fort Worth TRACON
08:08PM 32.9333 -96.9000 196° South 205 236 2,000 -840 Descending Dallas / Fort Worth TRACON
08:09PM 32.8833 -96.8833 164° South 129 148 1,200 -840 Descending Dallas / Fort Worth TRACON
08:11PM 32.8471 -96.8518 151° Southeast  Level Estimated
08:18PM 32.8471 -96.8518 151° Southeast  Level Estimated
08:19PM 32.8471 -96.8518 151° Southeast  Level Estimated